SCP
0 0 0 0 0 0 0 0 0 0 0 0 0 0 0 0 0 0 0 0 0 0 0 0 0 0 0 0 0 0 0 0 0 0 0 0 0 0 0 0 0 0 0 0
0 0 0 0 0 0 0 0 0 0 0 0 0 0 0 0 0 0 0 0 0 0 0 0 0 0 0 0 0 0 0 0 0 0 0 0 0 0 0 0 0 0 0 0
0 0 0 0 0 0 0 0 0 0 0 0 0 0 0 0 0 0 0 0 0 0 0 0 0 0 0 0 0 0 0 0 0 0 0 0 0 0 0 0 0 0 0 0
0 0 0 0 0 0 0 0 0 0 0 0 0 0 0 0 0 0 0 0 0 0 0 0 0 0 0 0 0 0 0 0 0 0 0 0 0 0 0 0 0 0 0 0
0 0 0 0 0 0 0 0 0 0 0 0 0 0 0 0 0 0 0 0 0 0 0 0 0 0 0 0 0 0 0 0 0 0 0 0 0 0 0 0 0 0 0 0
0 0 0 0 0 0 0 0 0 0 0 0 0 0 0 0 0 0 0 0 0 0 0 0 0 0 0 0 0 0 0 0 0 0 0 0 0 0 0 0 0 0 0 0
0 0 0 0 0 0 0 0 0 0 0 0 0 0 0 0 0 0 0 0 0 0 0 0 0 0 0 0 0 0 0 0 0 0 0 0 0 0 0 0 0 0 0 0
0 0 0 0 0 0 0 0 0 0 0 0 0 0 0 0 0 0 0 0 0 0 0 0 0 0 0 0 0 0 0 0 0 0 0 0 0 0 0 0 0 0 0 0
0 0 0 0 0 0 0 0 0 0 0 0 0 0 0 0 0 0 0 0 0 0 0 0 0 0 0 0 0 0 0 0 0 0 0 0 0 0 0 0 0 0 0 0
0 0 0 0 0 0 0 0 0 0 0 0 0 0 0 0 0 0 0 0 0 0 0 0 0 0 0 0 0 0 0 0 0 0 0 0 0 0 0 0 0 0 0 0
0 0 0 0 0 0 0 0 0 0 0 0 0 0 0 0 0 0 0 0 0 0 0 0 0 0 0 0 0 0 0 0 0 0 0 0 0 0 0 0 0 0 0 0
0 0 0 0 0 0 0 0 0 0 0 0 0 0 0 0 0 0 0 0 0 0 0 0 0 0 0 0 0 0 0 0 0 0 0 0 0 0 0 0 0 0 0 0
0 0 0 0 0 0 0 0 0 0 0 0 0 0 0 0 0 0 0 0 0 0 0 0 0 0 0 0 0 0 0 0 0 0 0 0 0 0 0 0 0 0 0 0
0 0 0 0 0 0 0 0 0 0 0 0 0 0 0 0 0 0 0 0 0 0 0 0 0 0 0 0 0 0 0 0 0 0 0 0 0 0 0 0 0 0 0 0
0 0 0 0 0 0 0 0 0 0 0 0 0 0 0 0 0 0 0 0 0 0 0 0 0 0 0 0 0 0 0 0 0 0 0 0 0 0 0 0 0 0 0 0
0 0 0 0 0 0 0 0 0 0 0 0 0 0 0 0 0 0 0 0 0 0 0 0 0 0 0 0 0 0 0 0 0 0 0 0 0 0 0 0 0 0 0 0
0 0 0 0 0 0 0 0 0 0 0 0 0 0 0 0 0 0 0 0 0 0 0 0 0 0 0 0 0 0 0 0 0 0 0 0 0 0 0 0 0 0 0 0
0 0 0 0 0 0 0 0 0 0 0 0 0 0 0 0 0 0 0 0 0 0 0 0 0 0 0 0 0 0 0 0 0 0 0 0 0 0 0 0 0 0 0 0
0 0 0 0 0 0 0 0 0 0 0 0 0 0 0 0 0 0 0 0 0 0 0 0 0 0 0 0 0 0 0 0 0 0 0 0 0 0 0 0 0 0 0 0
0 0 0 0 0 0 0 0 0 0 0 0 0 0 0 0 0 0 0 0 0 0 0 0 0 0 0 0 0 0 0 0 0 0 0 0 0 0 0 0 0 0 0 0
0 0 0 0 0 0 0 0 0 0 0 0 0 0 0 0 0 0 0 0 0 0 0 0 0 0 0 0 0 0 0 0 0 0 0 0 0 0 0 0 0 0 0 0
0 0 0 0 0 0 0 0 0 0 0 0 0 0 0 0 0 0 0 0 0 0 0 0 0 0 0 0 0 0 0 0 0 0 0 0 0 0 0 0 0 0 0 0
0 0 0 0 0 0 0 0 0 0 0 0 0 0 0 0 0 0 0 0 0 0 0 0 0 0 0 0 0 0 0 0 0 0 0 0 0 0 0 0 0 0 0 0
0 0 0 0 0 0 0 0 0 0 0 0 0 0 0 0 0 0 0 0 0 0 0 0 0 0 0 0 0 0 0 0 0 0 0 0 0 0 0 0 0 0 0 0
0 0 0 0 0 0 0 0 0 0 0 0 0 0 0 0 0 0 0 0 0 0 0 0 0 0 0 0 0 0 0 0 0 0 0 0 0 0 0 0 0 0 0 0
0 0 0 0 0 0 0 0 0 0 0 0 0 0 0 0 0 0 0 0 0 0 0 0 0 0 0 0 0 0 0 0 0 0 0 0 0 0 0 0 0 0 0 0
0 0 0 0 0 0 0 0 0 0 0 0 0 0 0 0 0 0 0 0 0 0 0 0 0 0 0 0 0 0 0 0 0 0 0 0 0 0 0 0 0 0 0 0
Wind_Speed
4 3 3 5 7 9 10 9 9 8 8 10 7 5 4 3 3 3 3 3 4 3 3 3 3 3 3 2 2 2 3 2 2 1 1 1 1 1 1 1 1 1 1 1
3 2 4 7 10 11 11 10 11 11 14 11 6 4 4 4 4 4 4 4 4 4 4 4 4 3 3 3 2 2 3 2 2 1 1 1 1 1 1 0 0 0 1 1
3 2 4 10 11 13 10 10 10 13 13 5 4 5 5 5 5 6 5 5 5 5 4 4 3 3 3 2 2 3 2 2 2 2 1 1 1 1 1 1 0 1 1 1
2 2 8 9 3 9 10 11 13 11 9 6 6 5 4 4 6 6 5 5 5 4 4 3 3 3 2 2 2 3 2 2 2 2 2 1 1 1 1 1 1 1 2 2
2 4 11 7 5 7 8 10 13 15 13 8 3 3 6 6 7 6 5 4 3 3 3 3 3 3 3 3 3 3 3 2 2 2 2 2 2 2 2 1 1 2 2 2
4 4 10 6 4 4 3 8 8 12 12 8 4 3 6 3 4 4 3 3 3 3 3 3 3 3 4 3 3 4 3 3 2 2 2 3 3 2 1 1 2 2 2 2
7 7 12 6 5 6 5 8 4 8 9 8 10 9 4 2 2 2 2 3 3 3 3 3 3 4 4 4 4 4 2 2 2 2 3 3 2 1 1 1 1 2 2 3
7 8 14 7 9 11 10 2 2 4 5 7 7 5 3 3 3 3 3 3 3 3 3 2 3 4 4 5 3 2 2 2 2 2 2 1 1 1 1 1 1 2 2 3
14 14 5 11 11 8 3 3 3 3 4 5 5 5 5 4 4 4 4 3 3 4 3 2 3 4 5 3 2 2 2 2 2 2 1 1 2 2 1 1 2 2 2 3
8 12 8 9 9 8 7 7 6 5 5 5 6 6 6 5 4 4 4 4 3 4 4 3 3 3 3 2 2 3 3 2 2 2 2 1 2 2 2 2 3 3 3 4
10 10 7 10 12 13 10 8 8 7 6 7 7 7 7 6 6 5 4 4 4 4 5 4 3 2 2 2 3 3 3 2 2 2 2 2 2 3 3 4 4 4 4 3
14 10 9 9 8 9 10 11 10 9 8 7 8 9 7 6 5 4 4 4 4 4 4 3 3 2 2 2 3 4 3 2 2 2 2 2 2 2 4 5 5 7 6 5
12 8 9 8 7 7 9 11 9 9 9 8 7 7 6 5 4 4 4 4 5 5 4 3 3 3 2 3 4 4 4 3 2 2 2 2 2 2 3 4 6 7 8 8
10 7 9 10 10 8 8 7 5 5 5 5 5 4 4 4 3 4 5 5 4 3 3 3 3 3 3 3 4 4 3 3 3 3 3 3 3 3 2 3 3 4 5 8
11 10 11 8 6 5 4 3 4 5 5 4 3 4 5 5 5 5 4 3 3 3 3 3 4 4 2 3 4 4 3 3 3 2 2 2 2 2 3 3 4 4 3 4
9 9 8 8 9 6 4 4 6 7 5 4 4 4 5 5 4 3 3 4 5 5 5 4 5 3 3 3 4 3 3 4 3 2 2 2 2 3 3 3 4 4 4 4
7 9 8 8 9 8 7 7 7 6 5 5 5 4 4 3 3 3 3 3 4 4 3 4 3 2 3 4 4 3 3 3 4 3 3 3 3 3 4 4 4 4 5 5
9 9 7 7 6 7 6 5 4 4 4 4 4 4 5 5 5 4 3 2 2 2 2 2 2 2 3 3 3 2 2 2 3 3 3 3 3 4 4 4 5 5 5 4
5 6 5 5 4 4 4 4 4 4 3 3 4 5 5 5 4 4 3 3 3 3 3 2 3 3 3 3 3 2 3 3 3 3 3 4 4 4 4 5 5 5 4 4
2 2 2 2 1 1 2 2 2 2 2 2 3 3 3 3 3 3 3 3 3 2 2 2 2 2 2 3 3 3 3 3 3 3 3 4 4 4 4 4 5 4 4 5
1 1 1 0 1 1 1 1 1 1 1 2 3 4 4 3 3 3 3 3 2 1 1 2 2 1 1 2 2 2 3 3 3 3 4 4 4 4 4 4 5 5 5 5
0 0 0 0 0 1 1 1 1 1 2 2 2 2 2 2 2 2 2 2 1 1 1 1 1 1 1 2 2 2 3 3 3 3 3 4 4 4 5 5 5 5 5 5
0 0 0 0 0 0 2 2 1 1 1 1 2 2 3 3 2 2 2 1 1 1 1 1 2 2 2 2 2 2 2 3 3 3 3 3 4 4 4 5 4 4 4 5
1 1 1 1 2 3 2 2 1 1 1 1 1 1 1 1 1 0 0 1 1 1 1 1 1 1 1 1 1 2 2 2 2 2 3 3 3 4 4 4 4 4 4 5
1 2 2 3 2 1 1 1 2 2 2 2 1 1 1 0 1 1 0 1 1 1 0 1 1 1 1 1 1 2 2 2 2 2 3 3 3 4 4 4 4 4 4 5
2 2 1 1 1 1 1 1 1 1 1 2 2 2 2 2 1 1 1 1 1 1 1 1 1 1 1 1 1 2 2 2 2 3 3 3 4 4 4 4 5 4 5 5
3 2 2 2 2 2 1 1 1 1 1 1 1 2 2 2 2 1 1 1 1 0 0 0 1 1 1 1 1 2 2 2 2 3 3 3 4 4 4 5 4 4 5 5
Wind_Direction
268 286 258 237 221 201 208 214 221 242 250 260 256 249 254 239 226 216 217 217 215 211 212 211 209 208 199 199 180 173 176 184 198 199 197 191 194 198 201 201 221 214 209 236
284 262 265 265 242 219 223 229 242 262 270 262 257 245 243 238 230 233 231 223 218 212 208 209 208 210 199 194 180 163 173 185 178 164 166 178 204 199 194 221 254 227 242 254
268 299 320 269 227 202 208 211 205 228 241 249 248 239 238 229 225 227 231 220 212 210 209 207 202 194 196 189 162 160 177 181 173 173 178 191 203 199 212 229 268 272 274 271
281 356 251 243 181 186 208 229 218 232 246 241 239 251 252 232 227 234 225 217 212 204 202 194 182 173 169 157 156 167 179 190 184 178 190 193 194 219 229 233 242 254 273 269
184 254 274 271 209 181 199 253 220 225 240 246 257 313 278 238 217 221 219 213 202 188 182 174 176 169 160 164 167 177 193 201 198 186 189 193 215 232 232 224 235 251 260 262
187 220 246 249 169 156 146 273 227 206 223 220 171 238 258 214 194 205 202 189 178 163 153 167 180 158 161 179 182 201 209 207 193 182 188 206 222 227 230 230 243 256 267 261
205 231 260 242 150 128 175 247 213 192 204 191 197 217 222 166 182 188 184 178 167 164 170 182 168 159 178 189 209 214 197 184 181 185 201 210 215 214 217 229 253 261 273 278
186 214 250 180 151 189 217 233 194 197 198 198 212 217 210 205 200 189 184 179 173 171 180 172 163 169 188 209 213 176 161 175 191 198 209 202 203 212 205 208 237 258 272 281
196 215 230 174 199 215 207 224 225 217 222 205 215 225 225 221 213 207 197 193 183 177 179 183 176 176 199 214 172 159 169 194 199 194 200 203 203 208 215 216 231 256 262 273
239 252 242 224 236 239 228 229 236 232 228 215 225 231 230 227 221 212 209 201 191 178 189 208 196 183 201 189 156 161 187 201 194 193 204 211 217 214 215 219 228 245 256 265
243 260 277 256 235 234 233 233 237 237 228 223 224 232 227 228 223 214 206 199 188 191 200 210 193 190 189 169 157 171 190 199 199 199 209 218 226 231 229 232 229 234 240 242
230 221 211 239 230 216 218 228 227 226 234 229 219 228 228 227 222 207 199 186 186 193 198 204 192 202 193 176 170 173 191 203 209 209 216 221 236 267 258 252 266 265 267 268
236 235 227 250 250 223 221 229 226 218 222 229 226 219 218 221 212 191 187 186 195 200 199 194 194 208 205 183 175 183 199 205 206 206 212 222 228 242 275 281 267 269 274 278
238 241 253 250 249 240 230 232 221 220 224 221 218 206 198 203 200 197 203 200 190 185 189 189 196 217 209 184 182 194 202 205 208 214 215 221 229 238 246 264 285 283 278 277
236 228 239 256 257 250 234 217 216 228 227 224 201 194 190 194 206 213 203 172 158 172 192 193 206 228 199 180 187 197 200 206 209 214 215 221 227 234 244 252 260 274 286 285
239 237 240 249 252 250 234 223 225 232 222 213 202 202 200 195 196 195 182 167 171 195 204 203 216 221 186 179 187 194 204 207 205 211 213 218 224 231 241 250 256 261 265 271
225 239 240 248 249 246 235 227 227 229 217 208 208 195 174 167 175 198 206 194 191 201 200 201 215 202 183 185 191 197 198 200 200 211 220 223 225 230 237 243 251 258 261 264
224 230 224 228 234 236 238 234 229 226 224 217 185 164 168 179 196 206 208 187 175 197 217 215 204 185 187 188 193 198 196 201 204 214 223 228 233 233 235 240 246 254 265 271
235 237 238 237 231 217 221 224 225 221 216 186 176 186 192 195 192 191 176 169 191 224 249 223 192 179 195 197 186 193 202 212 219 224 225 234 239 238 238 243 248 251 258 263
249 249 246 260 265 219 221 224 206 192 189 177 173 171 182 196 184 174 170 187 208 222 211 192 179 188 201 203 194 199 206 214 223 230 232 233 239 244 245 248 250 253 254 255
271 285 297 286 304 290 250 209 160 169 160 155 169 184 192 191 176 167 175 215 229 167 176 172 172 188 199 209 204 207 212 219 225 230 233 236 242 246 247 247 249 252 254 257
270 59 25 97 85 6 9 61 108 136 134 152 177 174 166 175 179 185 198 218 192 156 164 188 198 202 212 210 208 213 219 225 232 235 238 239 242 248 251 252 253 255 255 257
80 122 114 107 146 79 53 59 74 115 146 170 184 188 191 197 186 188 230 238 178 187 191 210 228 214 198 189 206 220 228 232 239 241 242 243 245 249 253 256 258 260 262 263
75 59 51 50 72 77 52 14 19 41 81 125 147 188 182 179 214 244 233 170 176 190 211 227 222 208 172 187 208 221 230 235 242 249 255 257 255 255 257 260 263 263 263 267
77 73 70 74 78 62 22 22 46 46 49 56 53 32 360 268 217 228 155 160 163 146 171 211 212 186 151 193 213 230 239 240 240 240 244 253 258 261 263 264 265 268 268 267
55 54 51 50 53 40 38 54 48 34 34 28 16 18 13 13 31 75 99 113 127 131 146 166 184 178 191 211 225 238 251 257 254 249 249 257 262 264 264 265 268 269 270 272
59 53 53 48 36 30 31 39 39 8 356 359 348 352 3 13 22 26 56 81 91 102 158 182 195 199 207 220 237 246 249 253 255 256 254 256 259 261 265 267 269 270 270 271